Regional Weather Roundup
Issued by NWS Cleveland, OH

Home | Current Version | Previous Version | Graphics & Text | Print | Product List | Glossary On
Versions: 1 2 3 4 5 6 7 8 9 10 11 12 13 14 15 16 17 18 19 20 21 22 23 24 25 26 27 28 29 30 31 32 33 34 35 36 37 38 39 40 41 42 43 44 45 46 47 48 49 50
000
ASUS41 KCLE 140010
RWRCLE
OHIO REGIONAL WEATHER ROUNDUP
NATIONAL WEATHER SERVICE WILMINGTON, OH
800 PM EDT SUN JUL 13 2014

NOTE: "FAIR" INDICATES FEW OR NO CLOUDS BELOW 12,000 FEET WITH NO
SIGNIFICANT WEATHER AND/OR OBSTRUCTIONS TO VISIBILITY.

OHZ001>008-015>018-024>027-034-035-043-044-140100-
   NORTHWEST OHIO

CITY           SKY/WX    TMP DP  RH WIND       PRES   REMARKS
DEFIANCE       SUNNY     82  64  54 VRB5      29.90R
FINDLAY        SUNNY     83  66  56 NW7       29.90R
TOLEDO EXPRESS SUNNY     82  62  50 W8        29.89R
TOLEDO METCALF MOSUNNY   82  62  50 W10       29.90R
LIMA           SUNNY     82  66  58 NW9       29.92R
$$

OHZ009>014-019>023-028>033-038-089-140100-
   NORTHEAST OHIO

CITY           SKY/WX    TMP DP  RH WIND       PRES   REMARKS
CLE-HOPKINS    PTCLDY    80  65  59 NW9       29.92R
CLE-LAKEFRONT  PTCLDY    78  68  71 SW5       29.88R
CUY CO. ARPT   PTCLDY    79  68  69 W9        29.91S
LORAIN-ELYRIA  PTCLDY    83  66  56 N3        29.91R
ASHTABULA      PTCLDY    77  64  64 W6        29.91R
AKRON-CANTON   PTCLDY    82  68  62 NW6       29.91R
WOOSTER        PTCLDY    82  67  60 NW9       29.92R
MANSFIELD      CLEAR     81  65  58 W5        29.94R
YOUNGSTOWN     PTCLDY    78  66  66 NW7       29.92R
$$

OHZ042-051>053-060>062-070>072-077>081-140100-
  SOUTHWEST OHIO

CITY           SKY/WX    TMP DP  RH WIND       PRES   REMARKS
CINC-COVINGTON CLOUDY    77  70  79 W7        29.95R
CINC-LUNKEN    PTSUNNY   80  72  76 NW5       29.93R
HAMILTON       LGT RAIN  73  72  96 CALM      29.94S
DAYTON         PTSUNNY   82  71  69 SW5       29.94R
WRIGHT-PAT AFB DRIZZLE   76  72  89 SW9       29.94R
DAYTON GENERAL PTSUNNY   73  70  90 CALM      29.94R
WILMINGTON     LGT RAIN  73  69  87 NW6       29.95R FOG
$$

OHZ036-037-039>041-045>050-054>059-063>069-073>076-082>088-140100-
  CENTRAL AND SOUTHEAST OHIO

CITY           SKY/WX    TMP DP  RH WIND       PRES   REMARKS
COLUMBUS       TSTM      77  71  82 SW12      29.94R
OSU AIRPORT    MOCLDY    80  70  71 SW12      29.93R
BOLTON FIELD   RAIN      72  71  96 SW12      29.96R
RICKENBACK AFB TSTM      74  68  81 W10       29.95R
NEWARK         MOCLDY    73  69  87 SW3       29.93R
MARION         CLEAR     83  65  54 NW8       29.92R
LANCASTER      TSTM      74  71  91 W7G17     29.96R VSB 3/4
ZANESVILLE     LGT RAIN  72  69  90 CALM      29.94F
NEW PHILLY     HVY RAIN  77  71  82 SW10      29.93R
$$



USA.gov is the U.S. government's official web portal to all federal, state and local government web resources and services.